Wind_Speed
40 44 49 52 55 58 60 61 64 66 70 72 74 78 81 81 67 54 50 49 53 60 66 71 68 86 94 94 94 102 107 107 99 100 85 81 79 74 72 68 70 69 68
45 49 55 58 60 63 65 68 71 73 75 78 82 84 87 74 58 47 50 55 67 69 73 78 90 93 99 102 108 110 114 94 80 70 67 69 67 68 67 65 68 68 66
50 54 60 63 64 67 70 72 76 78 80 83 87 85 80 69 55 51 53 64 69 79 87 90 94 95 99 105 112 110 91 77 69 60 57 58 57 58 59 61 61 62 63
54 60 64 66 68 72 74 75 80 82 84 87 90 88 70 64 56 57 61 67 78 87 85 93 97 101 104 109 99 80 73 65 59 53 50 50 47 46 44 47 51 50 54
60 64 67 70 73 76 76 79 83 86 88 92 84 82 67 59 56 63 70 70 86 88 90 98 100 105 112 96 76 69 66 58 51 45 43 40 37 35 35 35 37 41 41
63 67 69 72 76 78 80 83 85 89 91 85 79 75 66 62 64 64 71 72 86 85 98 104 105 109 106 80 70 60 51 46 42 35 33 26 25 23 21 19 18 21 24
68 70 73 76 78 80 83 86 88 88 91 85 71 69 66 62 63 71 73 77 91 95 97 105 108 114 95 77 66 56 45 35 30 25 21 16 10 7 8 9 9 8 5
72 74 76 79 81 83 86 88 89 92 87 72 64 62 62 61 71 77 79 85 91 96 95 104 114 116 88 75 64 49 39 30 21 16 9 3 4 5 4 7 5 7 12
74 77 78 81 84 87 89 91 93 89 77 62 54 57 60 64 71 76 79 86 92 99 96 107 120 116 86 72 63 48 38 27 15 7 4 6 7 16 15 6 7 16 12
78 79 81 85 87 90 91 94 88 77 66 57 58 56 59 63 72 76 86 91 91 88 98 108 117 114 86 70 61 43 28 18 7 7 12 15 17 15 10 15 13 8 5
79 81 84 88 89 91 93 85 76 64 59 58 54 54 59 69 69 81 86 87 88 89 93 106 107 114 85 66 53 44 27 11 8 16 19 13 12 11 13 14 10 8 4
83 85 87 89 91 90 80 70 66 60 59 60 57 54 64 73 76 82 87 91 86 88 90 105 106 110 86 64 50 36 14 6 13 14 12 9 12 12 13 11 4 5 6
86 88 88 90 83 73 67 60 58 58 59 57 57 62 70 69 79 84 91 93 91 88 91 103 105 110 99 65 47 28 13 2 9 10 8 7 10 10 14 11 4 7 10
87 88 84 74 67 64 56 54 58 58 59 57 58 60 70 76 83 89 96 96 94 89 93 105 107 108 106 70 46 30 11 9 10 7 4 4 8 7 9 9 5 7 9
86 75 68 63 58 53 55 56 58 61 64 59 59 66 71 81 87 93 97 101 94 91 94 104 103 107 108 94 51 34 17 14 16 11 6 3 8 7 12 14 14 10 13
67 64 60 53 52 51 49 54 60 63 63 61 68 66 73 81 90 96 100 101 100 93 95 101 104 109 110 94 55 38 23 18 23 18 18 13 12 12 13 16 14 18 16
65 58 50 50 48 49 51 60 62 63 66 70 70 70 75 84 91 93 100 100 98 89 93 103 102 106 108 94 58 37 29 22 27 26 22 21 17 16 13 16 14 21 17
55 51 52 52 47 52 58 60 64 69 66 72 73 75 79 86 90 93 97 100 99 93 95 101 104 108 107 98 62 40 32 26 30 34 31 28 25 21 17 16 18 18 17
49 51 53 52 53 58 60 62 69 69 67 74 78 78 84 85 90 94 97 96 100 96 95 97 104 103 109 102 63 42 34 31 30 37 41 37 32 29 29 24 22 22 21
51 53 52 56 59 58 60 64 67 68 71 74 76 84 87 89 93 94 98 101 103 94 95 98 102 105 109 96 66 44 35 33 31 33 41 46 42 39 37 34 26 25 25
54 54 56 59 60 63 64 67 70 72 75 78 80 83 85 88 94 97 98 102 97 98 93 98 104 107 108 93 67 48 37 35 34 31 32 41 48 47 44 42 41 32 31
58 58 62 62 66 66 65 65 70 75 74 78 82 84 85 89 92 95 100 103 103 98 93 97 102 111 107 96 64 46 39 36 35 35 32 32 36 45 50 50 47 44 38
64 67 68 70 69 66 70 74 78 74 79 82 85 86 91 91 95 100 103 105 102 94 90 94 106 109 105 85 61 44 39 36 37 36 34 34 34 34 37 44 54 52 48
68 71 72 75 76 76 77 79 82 82 81 84 87 88 90 94 99 101 105 104 96 95 91 100 110 108 98 74 54 45 42 40 37 38 37 35 35 34 33 33 37 54 57
74 74 77 80 83 85 83 85 84 84 86 88 89 91 94 97 100 104 105 96 93 90 99 107 108 105 92 65 52 50 46 45 43 40 39 36 35 35 34 33 32 35 49
78 80 83 84 84 86 86 85 85 87 89 90 93 96 99 100 104 105 100 91 95 101 106 105 103 93 73 56 53 50 45 43 43 42 41 38 36 34 34 33 32 32 33
Wind_Direction
336 334 334 340 340 338 337 338 338 337 336 335 335 335 334 335 335 329 326 323 322 318 315 314 313 318 315 309 306 303 301 302 298 293 287 281 277 273 270 266 265 265 265
334 333 334 339 337 334 335 338 336 335 335 336 335 335 337 337 334 329 325 324 325 327 328 320 316 311 309 305 304 305 309 303 297 292 286 279 275 269 266 263 262 262 262
330 331 334 335 332 331 335 337 333 334 333 335 334 337 338 338 334 332 332 333 331 328 326 323 319 314 312 311 311 310 306 302 299 296 288 283 276 268 264 262 260 259 261
328 329 331 330 329 331 334 334 331 332 333 333 336 338 333 337 332 331 333 335 333 335 330 325 325 322 322 317 317 312 308 304 300 296 292 283 279 273 264 261 260 259 258
325 327 328 328 327 328 331 329 331 331 332 333 335 335 332 335 335 336 336 335 332 332 331 336 332 328 324 326 322 317 312 308 300 297 291 289 285 277 263 257 256 261 261
323 324 325 323 324 327 329 327 329 330 331 335 330 331 330 338 338 336 337 326 332 333 336 343 340 336 329 331 329 326 319 309 300 298 296 290 282 273 269 262 260 258 262
320 320 320 320 323 325 325 326 327 329 332 330 326 326 333 336 336 337 330 325 328 328 327 342 345 338 336 339 338 335 330 320 312 308 297 294 279 255 228 216 215 213 237
316 318 318 319 321 321 323 325 326 328 330 327 325 326 334 336 338 334 329 329 330 332 336 343 347 345 342 345 345 345 345 341 330 316 313 281 182 167 145 136 135 120 96
313 314 316 317 318 320 322 325 325 327 329 327 332 329 331 336 333 328 334 335 335 336 343 344 348 347 345 349 348 352 354 348 349 2 89 117 103 107 103 102 144 141 96
310 313 314 315 318 320 322 323 324 326 326 329 333 331 333 333 330 334 333 332 333 336 339 343 350 352 348 350 348 350 354 353 20 91 88 87 116 131 127 115 90 113 3
309 311 314 316 317 319 320 321 323 322 325 330 333 334 331 328 336 337 338 337 340 341 342 345 348 351 349 348 346 346 349 10 50 85 93 99 132 134 125 116 79 336 271
309 311 313 315 317 317 319 319 321 322 325 331 332 330 327 331 332 335 337 340 343 342 345 346 351 354 351 347 344 347 345 7 94 101 114 119 145 145 148 159 141 284 278
308 310 313 314 314 316 317 318 322 323 326 330 335 337 338 335 338 337 340 340 344 344 341 345 350 354 356 346 343 339 322 198 139 153 116 147 157 174 184 184 271 271 305
307 310 310 311 312 313 315 318 320 322 327 327 329 330 337 341 339 338 340 341 343 343 341 343 347 348 356 347 340 327 309 200 176 171 113 103 182 213 213 207 258 247 271
308 305 307 308 310 311 316 318 319 321 325 324 323 324 331 337 337 339 339 340 342 342 338 341 345 347 348 352 339 327 295 231 202 200 198 230 207 236 237 234 255 251 265
300 304 307 305 308 317 319 317 318 321 325 317 318 320 324 331 334 336 337 338 341 339 337 342 344 347 347 347 340 331 302 245 218 212 218 228 230 240 250 251 250 256 274
299 305 305 303 308 316 314 313 316 318 321 323 321 319 322 325 330 334 337 337 339 336 333 340 343 344 346 347 341 328 312 265 229 221 233 226 227 237 249 256 240 248 264
299 302 302 306 308 308 310 311 313 319 316 313 318 320 320 325 328 329 334 336 336 334 332 337 340 343 343 345 339 325 316 287 251 229 231 231 222 224 230 253 248 248 260
295 295 300 305 305 307 311 314 313 315 313 315 318 317 320 324 326 328 332 331 334 333 332 337 337 340 340 341 337 326 312 306 273 250 237 237 235 224 221 227 235 240 251
292 294 298 298 302 304 307 305 309 313 312 315 314 315 315 318 321 322 327 328 332 331 333 335 338 338 339 338 334 326 313 304 298 275 254 245 239 236 231 225 228 237 232
291 291 295 296 300 300 302 305 306 309 310 311 313 316 317 315 315 319 324 327 328 329 330 331 334 335 337 336 331 322 315 307 300 296 278 262 251 244 232 231 229 231 236
290 291 293 297 299 301 302 303 307 308 308 311 312 314 316 316 319 322 322 324 325 327 326 327 329 331 332 333 326 317 313 307 303 297 293 285 272 260 249 237 233 231 231
291 293 297 295 299 298 302 303 306 305 307 309 309 312 314 317 318 319 322 322 323 326 324 323 326 328 330 330 323 314 310 307 303 300 296 291 285 281 269 255 242 239 227
293 294 295 296 298 298 299 299 302 304 306 308 310 312 315 315 316 318 318 321 322 324 322 321 324 326 328 325 319 312 307 304 300 298 296 295 290 283 278 275 259 242 239
292 294 294 295 295 298 298 300 301 302 304 307 308 311 311 313 316 317 318 319 321 318 318 319 322 323 324 319 313 310 305 301 297 294 293 292 291 288 282 275 270 260 244
290 292 293 296 296 296 298 298 299 301 306 307 308 310 312 313 316 317 321 319 317 316 316 319 320 322 321 316 313 311 308 305 300 293 290 290 289 286 284 278 270 266 259
Height
10992 10987 10981 10976 10970 10963 10958 10953 10943 10936 10927 10920 10911 10900 10888 10876 10865 10855 10846 10838 10831 10822 10811 10800 10787 10775 10758 10741 10725 10706 10690 10672 10659 10657 10648 10640 10636 10635 10633 10636 10636 10640 10642
10984 10978 10972 10966 10960 10954 10948 10940 10931 10924 10914 10906 10895 10885 10872 10861 10852 10844 10835 10828 10819 10809 10796 10783 10766 10748 10731 10711 10690 10668 10649 10631 10620 10620 10612 10605 10606 10604 10604 10610 10611 10613 10618
10975 10969 10962 10956 10952 10945 10938 10928 10920 10912 10903 10893 10882 10869 10857 10850 10840 10833 10826 10818 10807 10794 10779 10760 10742 10722 10701 10676 10651 10631 10613 10603 10593 10589 10584 10578 10577 10578 10582 10584 10588 10592 10594
10965 10959 10953 10948 10941 10933 10926 10919 10910 10901 10893 10881 10869 10859 10847 10840 10831 10823 10815 10803 10790 10776 10760 10738 10717 10692 10669 10645 10620 10596 10582 10577 10570 10564 10562 10557 10557 10557 10560 10563 10567 10573 10576
10956 10950 10944 10936 10929 10924 10919 10909 10899 10890 10880 10869 10857 10846 10839 10830 10822 10813 10802 10789 10777 10761 10742 10719 10694 10666 10634 10611 10592 10574 10559 10551 10547 10545 10541 10542 10540 10541 10542 10546 10553 10556 10561
10947 10942 10936 10928 10921 10915 10908 10899 10890 10879 10869 10855 10847 10834 10828 10821 10813 10803 10791 10777 10763 10746 10727 10700 10673 10646 10612 10588 10569 10554 10542 10534 10528 10529 10529 10528 10528 10529 10533 10538 10542 10547 10549
10939 10933 10927 10919 10912 10905 10898 10889 10879 10869 10858 10846 10836 10825 10818 10811 10801 10791 10779 10766 10751 10734 10716 10691 10660 10628 10599 10577 10556 10541 10531 10524 10519 10519 10520 10520 10521 10524 10527 10532 10538 10542 10546
10929 10924 10916 10909 10902 10895 10887 10878 10869 10858 10850 10838 10829 10816 10810 10801 10790 10779 10768 10754 10737 10722 10702 10676 10650 10618 10589 10568 10552 10538 10528 10521 10518 10516 10516 10518 10519 10523 10528 10534 10539 10543 10545
10921 10915 10908 10900 10892 10883 10875 10866 10856 10846 10839 10830 10822 10810 10802 10794 10784 10772 10759 10744 10728 10708 10692 10663 10641 10609 10584 10566 10552 10540 10531 10525 10521 10518 10518 10520 10524 10528 10534 10538 10539 10542 10544
10912 10904 10897 10889 10881 10870 10862 10852 10845 10836 10827 10821 10814 10803 10793 10788 10779 10765 10751 10736 10720 10700 10680 10660 10637 10610 10583 10568 10557 10546 10537 10531 10525 10523 10525 10528 10531 10534 10536 10539 10543 10544 10544
10900 10894 10885 10876 10867 10858 10851 10842 10833 10827 10819 10812 10808 10798 10789 10778 10769 10758 10743 10726 10709 10691 10674 10654 10632 10608 10582 10572 10561 10551 10543 10536 10532 10531 10532 10534 10536 10537 10538 10541 10542 10542 10543
10887 10880 10872 10863 10855 10847 10839 10831 10825 10817 10811 10801 10795 10792 10782 10770 10759 10748 10734 10719 10702 10683 10667 10648 10627 10610 10584 10572 10565 10555 10549 10544 10541 10540 10537 10536 10537 10539 10539 10539 10540 10540 10538
10873 10867 10860 10852 10844 10836 10828 10820 10814 10809 10803 10795 10788 10778 10772 10766 10754 10738 10724 10707 10690 10676 10659 10645 10626 10608 10592 10572 10567 10558 10552 10548 10545 10542 10539 10538 10539 10539 10539 10539 10540 10538 10538
10861 10855 10848 10841 10833 10825 10818 10814 10807 10800 10792 10784 10777 10769 10761 10750 10739 10726 10712 10697 10681 10666 10653 10638 10621 10605 10587 10572 10565 10559 10551 10548 10547 10545 10542 10539 10539 10539 10539 10538 10538 10536 10535
10848 10841 10834 10828 10821 10816 10809 10803 10796 10789 10782 10774 10768 10761 10751 10739 10727 10715 10702 10688 10673 10657 10644 10630 10616 10599 10585 10573 10561 10556 10550 10546 10543 10542 10541 10538 10537 10536 10535 10536 10536 10535 10534
10832 10828 10823 10817 10809 10805 10800 10793 10787 10780 10773 10766 10758 10749 10740 10728 10716 10704 10692 10677 10663 10650 10637 10623 10608 10593 10579 10565 10553 10548 10546 10541 10538 10536 10535 10535 10534 10533 10532 10531 10531 10532 10531
10819 10816 10813 10808 10802 10791 10788 10782 10776 10770 10763 10755 10746 10737 10728 10718 10706 10695 10683 10668 10656 10645 10631 10616 10601 10589 10575 10562 10549 10542 10538 10534 10531 10529 10528 10528 10529 10529 10528 10527 10526 10527 10527
10809 10806 10802 10798 10792 10788 10783 10776 10766 10757 10748 10742 10738 10729 10719 10707 10696 10685 10672 10659 10648 10635 10623 10610 10596 10581 10568 10557 10544 10536 10530 10527 10525 10521 10520 10519 10520 10521 10522 10522 10522 10522 10521
10799 10795 10791 10787 10783 10776 10769 10762 10754 10749 10742 10729 10720 10713 10705 10696 10686 10673 10662 10653 10642 10629 10616 10603 10589 10574 10560 10548 10536 10528 10523 10518 10516 10514 10511 10511 10510 10511 10512 10514 10514 10515 10516
10788 10784 10782 10775 10771 10764 10756 10749 10745 10737 10729 10723 10715 10704 10693 10682 10673 10664 10654 10642 10630 10619 10607 10594 10581 10566 10553 10539 10527 10519 10514 10510 10506 10503 10502 10501 10501 10502 10502 10503 10505 10506 10507
10777 10772 10769 10764 10758 10751 10745 10737 10730 10725 10718 10711 10702 10695 10686 10677 10666 10656 10644 10632 10620 10609 10596 10584 10571 10558 10545 10532 10520 10510 10504 10500 10496 10493 10490 10488 10488 10490 10491 10492 10494 10496 10498
10764 10760 10756 10752 10746 10739 10733 10727 10720 10713 10706 10701 10688 10681 10672 10662 10651 10642 10631 10620 10608 10596 10584 10572 10559 10547 10533 10522 10510 10502 10495 10490 10487 10482 10479 10477 10475 10475 10478 10480 10481 10484 10486
10751 10745 10742 10737 10733 10727 10720 10714 10706 10699 10693 10684 10678 10666 10656 10647 10637 10628 10616 10605 10594 10582 10570 10559 10548 10536 10523 10510 10499 10491 10486 10481 10477 10473 10469 10466 10464 10462 10461 10462 10466 10469 10473
10738 10733 10728 10720 10714 10711 10706 10699 10691 10684 10677 10668 10659 10652 10643 10633 10622 10613 10601 10589 10578 10566 10556 10545 10532 10521 10509 10498 10489 10482 10475 10470 10466 10462 10457 10453 10451 10450 10448 10447 10447 10452 10456
10721 10717 10712 10708 10702 10695 10689 10683 10676 10667 10660 10652 10644 10635 10626 10616 10606 10595 10584 10574 10564 10553 10542 10530 10517 10504 10492 10484 10476 10469 10463 10457 10453 10449 10445 10442 10438 10436 10435 10435 10434 10434 10437
10705 10700 10694 10691 10685 10677 10672 10666 10659 10652 10644 10634 10626 10617 10609 10598 10589 10578 10566 10555 10547 10537 10525 10512 10500 10487 10476 10469 10462 10455 10448 10443 10438 10435 10431 10428 10425 10424 10423 10421 10421 10421 10421